PST,Max TemperatureF,Mean TemperatureF,Min TemperatureF,Max Dew PointF,MeanDew PointF,Min DewpointF,Max Humidity, Mean Humidity, Min Humidity, Max Sea Level PressureIn, Mean Sea Level PressureIn, Min Sea Level PressureIn, Max VisibilityMiles, Mean VisibilityMiles, Min VisibilityMiles, Max Wind SpeedMPH, Mean Wind SpeedMPH, Max Gust SpeedMPH,PrecipitationIn, CloudCover, Events, WindDirDegrees
2012-12-1,60,54,47,39,35,30,56,48,40,29.87,29.80,29.68,10,10,10,49,24,66,T,6,,164
2012-12-2,59,46,32,46,36,27,100,72,43,30.12,29.78,29.53,10,8,2,39,12,52,0.72,6,Rain,276
2012-12-3,54,43,31,35,31,28,85,63,41,30.22,30.15,30.08,10,10,10,7,1,10,0.00,6,,139
2012-12-4,57,49,40,39,34,29,79,57,35,30.18,30.13,30.09,10,10,10,21,6,29,0.02,6,Rain,353
2012-12-5,53,48,43,47,44,41,93,85,77,30.19,30.11,30.06,10,10,7,14,2,18,0.23,6,Rain,223
2012-12-6,53,45,37,41,38,31,100,82,63,30.17,30.10,30.00,10,4,0,9,2,13,0.00,5,Fog,187
2012-12-7,54,42,29,34,29,24,92,67,41,30.19,30.12,30.05,10,10,10,7,1,12,0.00,4,,189
2012-12-8,52,40,27,27,23,20,81,55,28,30.19,30.11,30.05,10,10,10,9,1,10,0.00,4,,37
2012-12-9,48,38,28,26,25,22,85,62,38,30.42,30.33,30.20,10,10,10,9,2,13,0.00,4,,60
2012-12-10,51,38,25,30,26,22,85,63,41,30.43,30.34,30.23,10,10,10,7,0,12,0.00,2,,190
2012-12-11,64,45,26,29,21,7,85,49,12,30.20,29.92,29.66,10,10,10,31,7,43,0.00,4,,239
2012-12-12,46,38,29,33,26,17,85,66,47,29.80,29.71,29.64,10,10,10,21,5,26,T,5,,323
2012-12-13,40,31,22,20,18,15,74,57,40,29.89,29.84,29.79,10,10,10,12,2,16,0.00,3,,267
2012-12-14,38,29,19,27,20,13,85,65,44,29.95,29.85,29.76,10,9,2,17,4,24,0.01,6,Snow,314
2012-12-15,38,30,21,26,22,16,92,66,40,29.99,29.95,29.89,10,10,7,14,2,17,T,6,Snow,88
2012-12-16,50,40,29,32,27,24,78,62,45,29.98,29.89,29.75,10,10,10,32,6,44,0.00,6,,165
2012-12-17,50,41,32,37,30,23,70,58,45,29.88,29.82,29.74,10,10,4,35,13,43,0.02,4,Rain,254
2012-12-18,37,30,23,23,16,10,75,55,35,30.12,29.93,29.84,10,10,10,25,8,30,0.00,4,,343
2012-12-19,38,27,16,13,10,6,67,48,29,30.30,30.22,30.13,10,10,10,10,3,18,0.00,3,,249
2012-12-20,54,36,18,15,13,9,80,50,20,30.19,30.03,29.84,10,10,10,31,10,39,0.00,2,,183
2012-12-21,54,45,35,32,20,7,82,49,15,29.88,29.80,29.75,10,9,2,49,26,63,0.01,4,Rain-Snow,182
2012-12-22,45,39,32,36,31,25,92,71,49,29.97,29.84,29.73,10,5,0,40,11,48,0.33,7,Fog-Rain-Snow,232
2012-12-23,49,41,32,36,30,24,92,69,45,29.97,29.82,29.72,10,8,2,46,14,60,0.39,6,Rain-Snow,176
2012-12-24,41,34,27,28,18,8,75,51,27,30.20,30.07,29.81,10,10,10,18,7,23,T,3,,346
2012-12-25,40,32,24,32,26,16,96,72,48,30.17,29.88,29.71,10,5,0,10,2,13,0.19,7,Fog-Rain-Snow,34
2012-12-26,37,31,24,31,28,22,100,82,64,30.00,29.83,29.68,10,6,0,17,5,22,0.08,7,Fog-Snow,13
2012-12-27,36,29,22,26,22,15,92,74,56,30.21,30.11,29.98,10,10,5,8,2,10,T,5,Snow,104
2012-12-28,30,24,17,25,19,10,92,75,58,30.22,30.15,30.06,10,7,2,8,2,13,0.03,7,Snow,231
2012-12-29,32,29,26,26,23,21,92,82,72,30.12,30.07,30.00,10,8,2,6,1,9,0.01,8,Snow,185
2012-12-30,31,24,16,25,21,13,92,78,63,30.27,30.10,29.99,10,7,0,13,4,16,0.07,7,Fog-Snow,25
2012-12-31,28,20,11,16,12,8,92,78,63,30.43,30.33,30.21,10,10,2,6,2,,T,4,Snow,41